DW7287 Weather Reports


Display with metric or nautical units.
time (UTC)temp
F
wind
direction
speed
MPH
gust
MPH
rain 1hr
in
rain 24hr
in
rain mn
in
humidity
%
barometer
mb
20260901040105 74 0 0.0 0.0 0.00 0.00 0.00 94 1019.3
20260901034608 74 0 0.0 0.0 0.00 0.00 0.00 93 1019.5
20260901033109 74 0 0.0 0.0 0.00 0.00 0.00 93 1019.6
20260901031605 75 0 0.0 0.0 0.00 0.00 0.00 93 1019.8
20260901030100 75 0 0.0 0.0 0.00 0.00 0.00 93 1019.8
20260901024608 76 0 0.0 0.0 0.00 0.00 0.00 92 1019.9
20260901023117 76 0 0.0 0.0 0.00 0.00 0.00 92 1019.8
20260901021606 76 0 0.0 0.0 0.00 0.00 0.00 92 1019.8
20260901020058 77 0 0.0 0.0 0.00 0.00 0.00 91 1019.7
20260901014605 77 0 0.0 0.0 0.00 0.00 0.00 91 1019.7
20260901013101 77 0 0.0 0.0 0.00 0.00 0.00 91 1019.5
20260901011602 78 0 0.0 0.0 0.00 0.00 0.00 90 1019.4
20260901010103 78 0 0.0 0.0 0.00 0.00 0.00 89 1019.2
20260901004605 79 0 0.0 0.0 0.00 0.00 0.00 89 1019.0
20260901003104 79 0 0.0 0.0 0.00 0.00 0.00 88 1018.8
20260901001600 79 0 0.0 1.0 0.00 0.00 0.00 89 1018.5
20260901000104 80 0 0.0 0.0 0.00 0.00 0.00 86 1018.6
20260831234605 81 0 0.0 1.0 0.00 0.00 0.00 85 1018.7
20260831233103 81 0 0.0 0.0 0.00 0.00 0.00 83 1018.9
20260831231559 82 0 0.0 0.0 0.00 0.00 0.00 82 1018.9
20260831230109 82 0 0.0 1.0 0.00 0.00 0.00 81 1018.9
20260831224605 82 0 0.0 0.0 0.00 0.00 0.00 80 1018.9
20260831223104 83 0 0.0 1.0 0.00 0.00 0.00 80 1018.9
20260831221608 83 0 0.0 1.0 0.00 0.00 0.00 79 1019.0
20260831220125 84 262 0.0 1.0 0.00 0.00 0.00 78 1019.1
20260831214602 85 0 0.0 1.0 0.00 0.00 0.00 75 1019.4
20260831213110 86 0 0.0 1.0 0.00 0.00 0.00 70 1019.3
20260831211605 87 0 0.0 3.0 0.00 0.00 0.00 68 1019.4
20260831204603 86 0 0.0 1.0 0.00 0.00 0.00 72 1019.5
20260831203135 86 0 0.0 1.0 0.00 0.00 0.00 70 1019.3
20260831201603 86 0 1.0 3.0 0.00 0.00 0.00 68 1019.4
20260831194611 87 252 1.0 5.0 0.00 0.01 0.00 68 1019.7
20260831193101 87 0 0.0 0.0 0.00 0.01 0.00 69 1019.9
20260831191600 87 0 0.0 0.0 0.00 0.01 0.00 68 1020.1
20260831190137 87 0 0.0 0.0 0.00 0.01 0.00 70 1020.3
20260831184609 87 0 0.0 0.0 0.00 0.01 0.00 70 1020.6
20260831183101 87 0 0.0 0.0 0.00 0.01 0.00 69 1020.7
20260831181605 87 0 0.0 0.0 0.00 0.01 0.00 68 1020.7
20260831180100 88 0 0.0 0.0 0.00 0.01 0.00 68 1020.7
20260831174603 86 0 0.0 0.0 0.00 0.01 0.00 71 1020.9
20260831173103 86 0 0.0 0.0 0.00 0.01 0.00 70 1020.9
20260831171608 86 0 0.0 0.0 0.00 0.01 0.00 71 1021.1
20260831170105 85 0 0.0 0.0 0.00 0.01 0.00 72 1021.1
20260831164605 83 0 0.0 0.0 0.00 0.01 0.00 73 1021.2
20260831163100 84 0 0.0 0.0 0.00 0.01 0.00 74 1021.3
20260831161607 82 0 0.0 0.0 0.00 0.01 0.00 80 1021.3
20260831160134 79 0 0.0 0.0 0.00 0.01 0.00 84 1021.5
20260831154631 76 0 0.0 0.0 0.00 0.01 0.00 90 1021.4
20260831153132 74 0 0.0 0.0 0.00 0.01 0.00 92 1021.5
20260831151607 74 0 0.0 0.0 0.00 0.01 0.00 93 1021.4
20260831150104 73 0 0.0 0.0 0.00 0.01 0.00 94 1021.7
20260831144607 73 0 0.0 0.0 0.00 0.01 0.00 95 1021.7
20260831143109 72 0 0.0 0.0 0.00 0.01 0.00 96 1021.8
20260831141603 72 0 0.0 0.0 0.00 0.01 0.00 97 1021.5
20260831140104 71 0 0.0 0.0 0.00 0.01 0.00 97 1021.4
20260831134608 71 0 0.0 0.0 0.00 0.01 0.00 97 1021.3
20260831133102 70 0 0.0 0.0 0.00 0.01 0.00 97 1021.3
20260831131605 69 0 0.0 0.0 0.00 0.01 0.00 97 1021.3
20260831130135 69 0 0.0 0.0 0.00 0.01 0.00 97 1021.2
20260831124603 68 0 0.0 0.0 0.00 0.01 0.00 97 1021.1
20260831123109 68 0 0.0 0.0 0.00 0.01 0.00 97 1021.1
20260831121609 67 0 0.0 0.0 0.00 0.01 0.00 97 1021.0
20260831120145 66 0 0.0 0.0 0.00 0.01 0.00 96 1020.9
20260831114605 66 0 0.0 0.0 0.00 0.01 0.00 96 1020.7
20260831113103 66 0 0.0 0.0 0.00 0.01 0.00 96 1020.8
20260831111603 65 0 0.0 0.0 0.00 0.01 0.00 96 1020.4
20260831104608 66 0 0.0 0.0 0.00 0.01 0.00 96 1020.4
20260831103100 66 0 0.0 0.0 0.00 0.01 0.00 96 1020.2
20260831101624 66 0 0.0 0.0 0.00 0.01 0.00 96 1020.1
20260831094609 66 0 0.0 0.0 0.00 0.01 0.00 96 1020.0
20260831093104 66 0 0.0 0.0 0.00 0.01 0.00 95 1020.0
20260831091606 66 0 0.0 0.0 0.00 0.01 0.00 95 1020.0
20260831090113 66 0 0.0 0.0 0.00 0.01 0.00 95 1020.0
20260831084606 67 0 0.0 0.0 0.00 0.01 0.00 95 1019.9
20260831083103 67 0 0.0 0.0 0.00 0.01 0.00 95 1019.8
20260831081605 67 0 0.0 0.0 0.00 0.01 0.00 95 1019.7
20260831080108 67 0 0.0 0.0 0.00 0.01 0.00 95 1019.8
20260831074603 67 0 0.0 0.0 0.00 0.01 0.00 95 1019.7
20260831073118 67 0 0.0 0.0 0.00 0.01 0.00 95 1019.6
20260831071609 67 0 0.0 0.0 0.00 0.01 0.00 94 1019.5
20260831070138 68 0 0.0 0.0 0.00 0.01 0.00 94 1019.7
20260831064606 68 0 0.0 0.0 0.00 0.01 0.00 94 1019.6
20260831063107 68 0 0.0 0.0 0.00 0.01 0.00 94 1019.6
20260831061610 68 0 0.0 0.0 0.00 0.01 0.00 94 1019.8
20260831060111 68 0 0.0 0.0 0.00 0.01 0.00 94 1019.9
20260831054606 69 0 0.0 0.0 0.00 0.01 0.00 94 1020.0
20260831053109 69 0 0.0 0.0 0.00 0.01 0.00 94 1020.0
20260831051621 69 0 0.0 0.0 0.00 0.01 0.00 94 1020.2
20260831050110 69 0 0.0 0.0 0.00 0.01 0.00 94 1020.2
20260831044605 70 0 0.0 0.0 0.00 0.01 0.00 94 1020.3
20260831043104 70 0 0.0 0.0 0.00 0.01 0.00 95 1020.1
20260831041605 70 0 0.0 0.0 0.00 0.01 0.00 95 1020.2